RH
34 39 47 50 52 60 63 70 77 82 89 91 93 95 96 95 95 88 80 82 85 93 96 96 97 97 96 96 96 96 95 94
33 36 38 46 51 52 56 48 53 71 79 87 74 70 69 66 58 62 64 67 63 79 88 88 91 96 96 96 96 95 96 96
38 38 41 50 48 46 45 48 60 65 66 67 68 72 68 72 75 76 75 73 72 66 78 87 89 92 90 93 96 98 98 98
34 35 43 48 49 49 47 60 74 78 80 79 84 85 81 82 79 84 84 79 79 83 84 88 90 91 93 95 93 94 98 97
29 38 50 53 56 52 53 69 74 78 84 89 91 93 92 90 93 90 85 81 79 80 82 87 88 92 94 96 87 95 96 97
36 42 46 52 53 55 63 76 79 84 86 89 94 93 94 93 90 88 83 80 75 74 71 88 91 92 90 92 90 93 94 96
38 41 46 52 58 59 76 80 84 83 82 85 86 89 88 90 89 88 85 81 80 77 73 84 91 92 92 94 96 97 94 93
46 41 47 48 56 69 74 78 86 84 84 85 88 90 89 89 89 89 84 84 82 83 83 88 91 93 93 94 96 97 97 98
41 42 46 50 68 80 78 78 83 81 80 81 86 88 94 93 90 90 88 88 89 88 91 91 92 93 94 94 97 98 97 98
43 44 48 62 81 82 80 82 81 80 79 80 80 80 87 91 89 90 91 87 84 85 92 93 93 94 94 95 98 98 97 87
41 43 47 71 81 84 85 83 81 79 79 75 76 78 81 88 89 88 84 87 86 91 92 93 93 92 92 94 97 98 97 97
41 43 45 68 84 87 86 81 79 83 80 78 81 84 81 86 88 85 85 86 89 89 90 91 88 89 91 93 94 96 96 97
40 40 41 67 79 85 83 82 82 83 80 77 84 86 85 87 83 77 82 85 88 87 90 90 90 93 93 93 95 94 97 98
39 40 42 55 77 80 81 82 85 86 83 83 87 89 89 85 77 77 80 85 85 89 89 91 91 92 95 95 94 94 95 97
37 40 44 56 70 77 80 85 87 89 91 89 92 90 80 81 80 84 90 91 88 90 92 92 93 94 94 95 95 96 97 97
34 35 43 66 72 74 79 87 84 87 93 94 94 79 84 88 92 93 90 92 86 82 88 95 95 95 95 98 94 97 93 90
32 33 41 50 64 68 74 86 84 88 92 93 89 89 89 90 91 88 85 92 82 87 91 95 97 92 89 92 92 98 97 98
40 43 45 46 50 62 77 85 84 90 92 86 81 81 84 90 92 88 92 89 90 93 89 91 91 96 94 89 89 98 99 98
51 56 62 66 66 67 82 82 83 90 91 76 78 80 84 89 93 90 95 89 89 93 90 90 96 92 93 82 92 91 96 98
Wind_Speed
7 9 8 9 9 6 2 3 3 2 1 2 3 3 3 4 4 5 6 5 6 2 4 4 3 3 4 4 5 2 4 4
7 8 7 6 6 7 7 8 8 4 3 3 3 3 3 4 6 9 7 5 6 6 4 5 4 3 4 4 3 6 4 4
3 5 8 8 8 8 8 8 7 5 3 2 3 1 2 3 4 6 7 9 10 9 8 7 7 5 7 6 3 2 3 5
7 8 7 8 8 8 8 8 8 7 7 3 2 2 2 3 5 3 5 7 8 7 7 5 5 4 4 5 6 6 3 4
7 9 7 8 5 6 8 9 8 8 6 6 7 3 2 3 3 3 4 5 5 5 5 4 5 3 4 3 4 3 4 4
10 9 8 6 6 7 7 8 7 6 7 7 4 3 1 2 2 4 3 3 3 2 3 3 3 3 4 5 4 3 2 2
9 7 7 6 5 6 7 8 7 7 7 6 6 4 3 3 3 3 4 3 4 4 5 3 4 4 3 4 5 5 5 4
7 8 7 6 6 6 7 7 7 6 5 5 6 6 5 4 4 3 5 4 3 5 5 5 4 4 5 4 5 5 5 4
8 7 7 7 7 7 7 7 6 5 4 4 4 5 3 4 2 3 4 3 4 5 6 6 6 6 5 4 3 4 5 4
7 6 6 7 7 6 6 7 5 3 2 2 2 3 5 5 6 4 3 6 4 6 6 6 6 6 5 5 4 5 5 5
6 5 6 5 6 5 6 6 4 2 0 2 2 5 6 6 6 6 6 6 5 6 6 6 5 6 6 5 4 5 5 4
5 5 5 7 6 5 5 3 1 1 2 3 5 6 7 6 6 6 6 5 6 6 6 6 6 6 6 6 6 6 6 6
5 4 4 6 6 5 3 1 1 3 5 5 6 7 7 7 6 6 5 6 6 6 6 6 6 6 6 6 6 6 7 8
3 3 2 5 5 4 3 1 3 6 6 5 7 7 7 7 5 5 7 8 8 7 6 6 7 7 7 7 7 7 7 6
2 2 2 4 5 5 4 1 3 6 6 6 7 7 6 5 5 7 6 8 9 8 7 7 7 7 7 7 7 6 6 6
4 2 3 5 4 4 3 1 4 5 6 6 6 5 6 4 5 6 7 6 10 11 10 8 7 5 6 6 6 5 7 9
5 5 6 3 5 5 3 1 4 5 6 6 6 6 6 6 5 8 7 7 11 10 10 9 8 6 13 12 8 5 7 8
6 6 6 5 5 5 2 2 3 6 5 6 7 7 8 6 5 8 8 8 10 9 10 8 9 8 12 13 11 5 7 9
8 8 8 8 7 6 5 2 5 6 7 10 7 7 8 7 5 7 7 7 8 9 9 9 6 7 11 12 13 9 8 8
Wind_Direction
163 163 173 174 186 191 13 39 0 11 264 277 283 302 314 308 337 8 359 8 359 299 268 276 199 250 263 268 242 243 239 233
183 192 165 117 55 77 67 73 28 45 23 355 26 7 355 27 27 22 24 12 3 31 23 11 5 325 272 252 222 222 234 200
180 86 75 76 93 81 73 76 73 61 66 33 60 334 21 79 23 23 13 15 18 36 23 19 11 2 357 334 270 250 236 195
125 93 91 87 82 83 80 84 68 53 50 50 32 41 20 8 12 25 22 23 28 38 30 23 16 16 11 350 1 338 279 250
108 108 99 102 110 101 85 77 76 65 60 69 67 73 2 339 341 358 10 25 31 38 24 3 359 350 360 344 353 338 352 322
116 119 124 106 95 88 96 95 86 75 63 70 86 71 346 302 329 1 354 349 344 337 315 307 306 307 314 316 319 301 266 270
102 106 109 106 102 93 105 92 75 64 55 46 48 36 345 331 302 323 316 317 308 304 307 269 255 261 265 282 279 279 278 242
108 105 110 107 89 91 89 85 77 66 59 46 31 16 349 327 342 329 330 314 313 306 314 313 295 271 270 271 264 261 262 269
108 117 125 108 106 94 86 89 85 61 49 42 42 11 330 301 308 287 287 295 290 290 297 297 289 283 276 286 280 271 264 265
121 123 123 122 116 106 99 102 100 86 58 17 7 320 307 290 295 290 288 282 277 286 295 294 296 287 272 267 262 266 254 273
110 111 114 122 120 114 103 120 135 184 217 353 284 288 296 282 283 284 278 281 280 287 295 296 306 306 298 282 269 255 253 264
106 98 95 136 121 122 122 121 125 314 319 274 281 281 282 280 271 270 270 277 290 297 289 285 291 286 283 283 272 260 244 248
101 104 105 138 132 127 138 162 252 270 273 295 297 279 281 276 269 259 286 288 286 282 279 283 280 275 273 268 263 263 245 245
89 69 53 117 140 149 164 253 284 288 293 297 297 293 289 281 278 316 312 295 289 295 282 282 285 280 274 267 252 258 251 244
98 49 13 116 156 179 202 130 319 320 318 303 303 302 318 323 347 320 308 303 309 305 292 290 282 278 280 275 264 266 269 264
31 9 46 149 184 217 214 202 349 342 324 319 315 344 339 354 333 313 304 312 320 316 306 294 286 279 293 290 277 271 282 278
358 23 74 97 215 245 197 186 344 341 320 325 327 329 329 296 314 319 327 315 331 314 304 302 304 298 294 291 293 269 274 270
11 63 52 20 352 306 184 169 336 327 321 346 336 340 322 315 320 323 324 339 332 327 330 323 313 301 312 314 303 276 281 276
41 50 34 13 2 21 115 67 9 333 343 353 335 333 327 328 316 334 327 334 332 323 321 315 306 309 307 320 301 296 285 276